Jonesboro, AR

3:53 PM CDT on June 24, 2017 (GMT -0500)
Jonesboro Municipal

Weather History for KJBR - March, 2013

Change the Weather History Date:

Friday, March 22, 2013

  Actual Average Record
Temperature  
Mean Temperature 39 °F 52 °F  
Max Temperature 44 °F 62 °F 88 °F (1907)
Min Temperature 33 °F 42 °F 23 °F (1974)
Degree Days  
Heating Degree Days 26 13  
Month to date heating degree days 443 359  
Since 1 July heating degree days 3071 3315  
Cooling Degree Days 0 0  
Month to date cooling degree days 0 0  
Year to date cooling degree days 0 0  
Moisture  
Dew Point 34 °F    
Average Humidity 87    
Maximum Humidity 100    
Minimum Humidity 73    
Precipitation  
Precipitation 0.05 in 0.15 in 2.19 in (1948)
Month to date precipitation 1.16 3.11  
Year to date precipitation 10.95 10.26  
Snow  
Snow 0.00 in - - ()
Month to date snowfall 4.0  
Snow Depth 0.00 in    
Sea Level Pressure  
Sea Level Pressure 29.96 in    
Wind  
Wind Speed 10 mph (ENE)    
Max Wind Speed 14 mph    
Max Gust Speed 18 mph    
Visibility 8 miles    
Events Rain , Snow    
T = Trace of Precipitation, MM = Missing Value Source: NWS Daily Summary

Daily Weather History Graph

Daily Weather History Graph

Search for Another Location

Airport or City:

Trip Planner

Search our weather history database for the weather conditions in past years. The results will help you decide how hot, cold, wet, or windy it might be!

Date:

Astronomy

Mar. 22, 2013 Rise Set
Actual Time 7:02 AM CDT 7:16 PM CDT
Civil Twilight 6:37 AM CDT 7:41 PM CDT
Nautical Twilight 6:07 AM CDT 8:11 PM CDT
Astronomical Twilight 5:37 AM CDT 8:42 PM CDT
Moon 2:51 PM CDT (3/22) 3:55 AM CDT (3/22)
Length of Visible Light 13h 04m
Length of Day
12h 13m
Waxing Gibbous, 77% of the Moon is Illuminated
Mar 22
Waxing Gibbous
Mar 27
Full
Apr 2
Last Quarter
Apr 10
New
Apr 18
First Quarter

Hourly Weather History & Observations

Time (CDT) Temp. Windchill Dew Point Humidity Pressure Visibility Wind Dir Wind Speed Gust Speed Precip Events Conditions
12:04 AM 33.8 °F 26.4 °F 32.0 °F 93% 29.99 in 3.0 mi East 9.2 mph - 0.02 in Snow Light Snow
12:53 AM 33.1 °F 25.5 °F 32.0 °F 96% 29.99 in 5.0 mi East 9.2 mph - 0.11 in Rain Light Rain
1:53 AM 33.1 °F 25.5 °F 32.0 °F 96% 29.96 in 6.0 mi East 9.2 mph - 0.04 in Rain Light Rain
2:53 AM 33.1 °F 26.9 °F 32.0 °F 96% 29.96 in 7.0 mi East 6.9 mph - 0.01 in Rain Light Rain
3:53 AM 34.0 °F 26.6 °F 33.1 °F 96% 29.94 in 6.0 mi ENE 9.2 mph - 0.00 in Rain Light Rain
4:53 AM 34.0 °F 25.0 °F 33.1 °F 96% 29.93 in 6.0 mi ENE 12.7 mph - 0.00 in   Overcast
5:02 AM 33.8 °F 25.3 °F 33.8 °F 100% 29.94 in 7.0 mi ENE 11.5 mph - N/A   Overcast
5:53 AM 34.0 °F 26.6 °F 33.1 °F 96% 29.97 in 6.0 mi NE 9.2 mph - N/A   Overcast
6:33 AM 33.8 °F 24.8 °F 33.8 °F 100% 29.95 in 5.0 mi ENE 12.7 mph - 0.00 in Rain Light Rain
6:46 AM 33.8 °F 25.8 °F 33.8 °F 100% 29.96 in 5.0 mi ENE 10.4 mph - 0.00 in Rain Light Rain
6:53 AM 34.0 °F 25.5 °F 33.1 °F 96% 29.96 in 5.0 mi NE 11.5 mph - 0.00 in Rain Light Rain
7:50 AM 33.8 °F 25.8 °F 33.8 °F 100% 29.97 in 4.0 mi NE 10.4 mph - 0.00 in   Overcast
7:53 AM 34.0 °F 26.6 °F 34.0 °F 100% 29.98 in 4.0 mi NE 9.2 mph - 0.00 in   Overcast
8:53 AM 35.1 °F 26.4 °F 35.1 °F 100% 29.99 in 7.0 mi NE 12.7 mph - N/A   Overcast
9:53 AM 35.1 °F 28.6 °F 35.1 °F 100% 30.00 in 10.0 mi ENE 8.1 mph - N/A   Overcast
10:53 AM 36.0 °F 29.0 °F 32.0 °F 86% 30.00 in 10.0 mi ENE 9.2 mph - N/A   Overcast
11:53 AM 37.0 °F 30.4 °F 32.0 °F 82% 29.99 in 10.0 mi ENE 9.2 mph - N/A   Overcast
12:07 PM 37.4 °F 30.8 °F 32.0 °F 81% 29.98 in 10.0 mi NE 9.2 mph - N/A   Overcast
12:53 PM 37.9 °F 30.5 °F 32.0 °F 79% 29.97 in 10.0 mi NE 11.5 mph - N/A   Overcast
1:53 PM 39.9 °F 32.9 °F 32.0 °F 73% 29.95 in 10.0 mi NE 11.5 mph - N/A   Overcast
2:53 PM 41.0 °F 34.3 °F 34.0 °F 76% 29.92 in 10.0 mi NE 11.5 mph - N/A   Overcast
3:53 PM 43.0 °F 37.7 °F 36.0 °F 76% 29.91 in 10.0 mi NE 9.2 mph - N/A   Overcast
4:23 PM 42.8 °F 37.5 °F 35.6 °F 76% 29.92 in 10.0 mi NE 9.2 mph - N/A   Overcast
4:53 PM 43.0 °F 38.2 °F 37.0 °F 80% 29.93 in 10.0 mi NNE 8.1 mph - N/A   Overcast
5:53 PM 43.0 °F 37.2 °F 37.9 °F 82% 29.94 in 10.0 mi NE 10.4 mph - N/A   Overcast
6:53 PM 44.1 °F 39.0 °F 37.9 °F 79% 29.94 in 10.0 mi NE 9.2 mph - N/A   Overcast
7:53 PM 43.0 °F 37.7 °F 37.0 °F 80% 29.95 in 10.0 mi NE 9.2 mph - N/A   Overcast
8:53 PM 43.0 °F 37.7 °F 36.0 °F 76% 29.95 in 10.0 mi NE 9.2 mph - 0.00 in Rain Light Rain
9:53 PM 43.0 °F 37.7 °F 35.1 °F 74% 29.96 in 10.0 mi NE 9.2 mph - 0.00 in   Overcast
10:53 PM 43.0 °F 37.2 °F 36.0 °F 76% 29.96 in 10.0 mi NE 10.4 mph - N/A   Overcast
11:53 PM 43.0 °F 37.7 °F 36.0 °F 76% 29.96 in 10.0 mi ENE 9.2 mph - N/A   Overcast